Weather History for Rochelle, IL

Change the Weather History Date:

Wednesday, September 26, 2012

  Actual Average (KRFD) Record (KRFD)
Temperature  
Mean Temperature 63 °F 59 °F  
Max Temperature 76 °F 71 °F 92 °F (1920)
Min Temperature 49 °F 48 °F 26 °F (1926)
Degree Days  
Heating Degree Days 2 7  
Month to date heating degree days 85  
Since 1 July heating degree days 99  
Cooling Degree Days 0 1  
Month to date cooling degree days 80  
Year to date cooling degree days 807  
Growing Degree Days 13 (Base 50)    
Moisture  
Dew Point 47 °F    
Average Humidity 66    
Maximum Humidity 92    
Minimum Humidity 21    
Precipitation  
Precipitation 0.00 in 0.11 in 3.93 in (2011)
Month to date precipitation 2.95  
Year to date precipitation 28.61  
Sea Level Pressure  
Sea Level Pressure 30.03 in    
Wind  
Wind Speed 5 mph (NE)    
Max Wind Speed 12 mph    
Max Gust Speed 16 mph    
Visibility 8 miles    
Events Fog    
T = Trace of Precipitation, MM = Missing Value Source: NWS Daily Summary

Daily Weather History Graph

Daily Weather History Graph

Search for Another Location

Airport:

Trip Planner

Search our weather history database for the weather conditions in past years. The results will help you decide how hot, cold, wet, or windy it might be!

Date:

Astronomy

Sep. 26, 2012 Rise Set
Actual Time 6:48 AM CDT 6:45 PM CDT
Civil Twilight 6:20 AM CDT 7:13 PM CDT
Nautical Twilight 5:48 AM CDT 7:45 PM CDT
Astronomical Twilight 5:15 AM CDT 8:18 PM CDT
Moon 4:47 PM CDT 3:11 AM CDT
Length of Visible Light 12h 52m
Length of Day
11h 57m
Waxing Gibbous, 88% of the Moon is Illuminated
Sep 26
Waxing Gibbous
Sep 29
Full
Oct 8
Last Quarter
Oct 15
New
Oct 21
First Quarter

Hourly Weather History & Observations

Time (CDT) Temp. Dew Point Humidity Pressure Visibility Wind Dir Wind Speed Gust Speed Precip Events Conditions
12:15 AM 56.5 °F 53.6 °F 90% 29.88 in 3.0 mi Calm Calm - N/A   Clear
12:35 AM 54.0 °F 51.1 °F 90% 29.89 in 1.8 mi Calm Calm - N/A   Mostly Cloudy
12:55 AM 54.0 °F 51.3 °F 91% 29.90 in 0.2 mi SSE 3.5 mph - N/A Fog Fog
1:15 AM 52.9 °F 50.2 °F 91% 29.90 in 0.2 mi SSE 3.5 mph - N/A Fog Fog
1:35 AM 53.8 °F 51.1 °F 91% 29.90 in 0.2 mi North 4.6 mph - N/A Fog Fog
1:55 AM 55.8 °F 53.2 °F 91% 29.89 in 0.2 mi North 3.5 mph - N/A Fog Fog
2:15 AM 54.7 °F 52.2 °F 91% 29.89 in 0.2 mi Calm Calm - N/A Fog Fog
2:35 AM 54.0 °F 51.4 °F 91% 29.90 in 0.2 mi NW 3.5 mph - N/A Fog Fog
2:55 AM 54.5 °F 52.0 °F 91% 29.88 in 7.0 mi North 4.6 mph - N/A   Scattered Clouds
3:15 AM 54.0 °F 51.6 °F 92% 29.88 in 7.0 mi NNW 3.5 mph - N/A   Clear
3:35 AM 53.8 °F 51.1 °F 91% 29.89 in 10.0 mi NNW 4.6 mph - N/A   Clear
3:55 AM 53.1 °F 50.2 °F 90% 29.90 in 7.0 mi Calm Calm - N/A   Clear
4:15 AM 51.6 °F 48.7 °F 90% 29.91 in 5.0 mi Calm Calm - N/A   Clear
4:55 AM 52.5 °F 49.8 °F 91% 29.93 in 5.0 mi NNW 4.6 mph - N/A   Clear
5:15 AM 53.6 °F 50.9 °F 91% 29.94 in 4.0 mi North 5.8 mph - N/A   Clear
5:35 AM 52.7 °F 50.0 °F 91% 29.93 in 4.0 mi Calm Calm - N/A   Clear
5:55 AM 54.3 °F 51.6 °F 91% 29.94 in 5.0 mi NE 3.5 mph - N/A   Clear
6:15 AM 53.4 °F 50.7 °F 91% 29.95 in 4.0 mi NE 5.8 mph - N/A   Clear
6:35 AM 52.9 °F 50.2 °F 91% 29.95 in 4.0 mi NNE 4.6 mph - N/A   Clear
7:35 AM 54.0 °F 51.3 °F 91% 29.99 in 1.8 mi NNE 5.8 mph - N/A   Overcast
7:55 AM 54.1 °F 51.4 °F 91% 30.00 in 0.5 mi NNE 9.2 mph - N/A Fog Fog
8:15 AM 54.7 °F 52.0 °F 91% 30.00 in 1.8 mi NNE 8.1 mph - N/A   Overcast
8:35 AM 55.4 °F 52.7 °F 91% 30.01 in 4.0 mi NNE 11.5 mph - N/A   Overcast
8:55 AM 55.8 °F 52.7 °F 89% 30.01 in 5.0 mi NNE 10.4 mph - N/A   Overcast
9:15 AM 56.1 °F 52.2 °F 87% 30.02 in 7.0 mi NNE 11.5 mph - N/A   Overcast
9:35 AM 56.3 °F 51.8 °F 85% 30.03 in 10.0 mi NE 8.1 mph - N/A   Mostly Cloudy
9:55 AM 57.0 °F 51.8 °F 83% 30.04 in 10.0 mi NE 10.4 mph - N/A   Scattered Clouds
10:15 AM 58.6 °F 52.2 °F 79% 30.04 in 10.0 mi NE 11.5 mph - N/A   Clear
11:35 AM 68.2 °F 49.8 °F 52% 30.05 in 10.0 mi NE 9.2 mph - N/A   Clear
11:55 AM 70.7 °F 47.1 °F 43% 30.04 in 10.0 mi NE 11.5 mph - N/A   Clear
12:15 PM 72.3 °F 47.3 °F 41% 30.04 in 10.0 mi NE 9.2 mph 16.1 mph N/A   Clear
12:35 PM 72.5 °F 45.7 °F 38% 30.04 in 10.0 mi NNE 6.9 mph - N/A   Clear
12:55 PM 73.0 °F 45.1 °F 37% 30.04 in 10.0 mi NNE 6.9 mph - N/A   Clear
1:15 PM 73.8 °F 44.1 °F 34% 30.04 in 10.0 mi Calm Calm - N/A   Clear
1:35 PM 74.5 °F 42.3 °F 31% 30.03 in 10.0 mi NNE 9.2 mph - N/A   Clear
1:55 PM 73.6 °F 43.0 °F 33% 30.04 in 10.0 mi NNE 9.2 mph - N/A   Clear
2:15 PM 73.4 °F 43.0 °F 34% 30.04 in 10.0 mi NNE 10.4 mph - N/A   Clear
2:35 PM 75.7 °F 41.7 °F 30% 30.04 in 10.0 mi NE 5.8 mph - N/A   Clear
2:55 PM 75.2 °F 41.0 °F 29% 30.04 in 10.0 mi North 5.8 mph - N/A   Clear
3:15 PM 75.4 °F 39.7 °F 28% 30.04 in 10.0 mi NNE 9.2 mph - N/A   Clear
3:35 PM 76.1 °F 38.7 °F 26% 30.03 in 10.0 mi NE 5.8 mph - N/A   Clear
3:55 PM 75.0 °F 36.7 °F 25% 30.04 in 10.0 mi NE 6.9 mph - N/A   Clear
4:15 PM 73.8 °F 35.8 °F 25% 30.04 in 10.0 mi North 3.5 mph - N/A   Clear
4:35 PM 75.0 °F 33.8 °F 22% 30.04 in 10.0 mi Calm Calm - N/A   Clear
4:55 PM 75.2 °F 33.1 °F 21% 30.04 in 10.0 mi North 3.5 mph - N/A   Clear
5:15 PM 74.7 °F 34.0 °F 23% 30.04 in 10.0 mi NNE 5.8 mph - N/A   Clear
5:35 PM 73.4 °F 35.4 °F 25% 30.05 in 10.0 mi NE 3.5 mph - N/A   Clear
5:55 PM 71.8 °F 36.7 °F 28% 30.06 in 10.0 mi NE 5.8 mph - N/A   Clear
6:15 PM 68.9 °F 48.0 °F 47% 30.07 in 10.0 mi East 6.9 mph - N/A   Clear
6:35 PM 66.0 °F 48.7 °F 54% 30.08 in 10.0 mi East 5.8 mph - N/A   Clear
6:55 PM 64.4 °F 49.3 °F 58% 30.09 in 10.0 mi East 8.1 mph - N/A   Clear
7:15 PM 62.6 °F 49.6 °F 63% 30.10 in 10.0 mi ENE 6.9 mph - N/A   Clear
7:35 PM 61.0 °F 49.5 °F 66% 30.11 in 10.0 mi ENE 6.9 mph - N/A   Clear
7:55 PM 60.1 °F 49.1 °F 67% 30.12 in 10.0 mi NE 6.9 mph - N/A   Clear
8:15 PM 59.0 °F 48.4 °F 68% 30.13 in 10.0 mi ENE 9.2 mph - N/A   Clear
8:35 PM 58.3 °F 47.3 °F 67% 30.14 in 10.0 mi ENE 9.2 mph - N/A   Clear
8:55 PM 57.4 °F 46.0 °F 66% 30.14 in 10.0 mi ENE 8.1 mph - N/A   Clear
9:15 PM 56.1 °F 45.5 °F 68% 30.15 in 10.0 mi ENE 9.2 mph - N/A   Clear
9:35 PM 55.4 °F 44.8 °F 67% 30.15 in 10.0 mi NE 10.4 mph - N/A   Clear
9:55 PM 54.7 °F 44.2 °F 68% 30.16 in 10.0 mi ENE 6.9 mph - N/A   Clear
10:15 PM 53.4 °F 44.1 °F 71% 30.17 in 10.0 mi NE 6.9 mph - N/A   Clear
10:35 PM 52.2 °F 43.9 °F 73% 30.17 in 10.0 mi NE 4.6 mph - N/A   Clear
10:55 PM 51.8 °F 43.3 °F 73% 30.17 in 10.0 mi NE 6.9 mph - N/A   Clear
11:15 PM 51.6 °F 42.8 °F 72% 30.17 in 10.0 mi NE 6.9 mph - N/A   Clear
11:35 PM 50.7 °F 42.3 °F 73% 30.18 in 10.0 mi ENE 5.8 mph - N/A   Clear
11:55 PM 49.5 °F 41.9 °F 75% 30.18 in 10.0 mi NE 3.5 mph - N/A   Clear